TimeCET,TemperatureF,Dew PointF,Humidity,Sea Level PressureIn,VisibilityMPH,Wind Direction,Wind SpeedMPH,Gust SpeedMPH,PrecipitationIn,Events,Conditions,WindDirDegrees,DateUTC
12:20 AM,41.0,37.4,87,30.01,3.7,Variable,2.3,-,N/A,,Unknown,0,2013-02-25 23:20:00
12:50 AM,39.2,35.6,87,30.01,3.7,West,3.5,-,N/A,,Unknown,270,2013-02-25 23:50:00
1:20 AM,39.2,37.4,93,30.01,3.7,NNE,1.2,-,N/A,,Unknown,30,2013-02-26 00:20:00
1:50 AM,41.0,39.2,93,30.01,3.7,North,3.5,-,N/A,,Unknown,350,2013-02-26 00:50:00
2:20 AM,42.8,37.4,81,30.01,3.7,NNE,3.5,-,N/A,,Unknown,20,2013-02-26 01:20:00
2:50 AM,42.8,37.4,81,30.01,3.7,NNW,4.6,-,N/A,,Unknown,330,2013-02-26 01:50:00
3:20 AM,42.8,37.4,81,29.98,3.7,NW,4.6,-,N/A,,Unknown,310,2013-02-26 02:20:00
3:50 AM,42.8,37.4,81,29.98,3.7,Variable,2.3,-,N/A,,Unknown,0,2013-02-26 02:50:00
4:20 AM,42.8,37.4,81,30.01,3.7,NW,3.5,-,N/A,,Scattered Clouds,310,2013-02-26 03:20:00
4:50 AM,42.8,37.4,81,30.01,3.7,WSW,4.6,-,N/A,,Scattered Clouds,250,2013-02-26 03:50:00
5:20 AM,42.8,37.4,81,30.01,5.0,Variable,2.3,-,N/A,,Mostly Cloudy,0,2013-02-26 04:20:00
5:50 AM,42.8,37.4,81,30.01,5.0,Calm,Calm,-,N/A,,Mostly Cloudy,0,2013-02-26 04:50:00
6:20 AM,42.8,39.2,87,30.01,5.0,SSW,2.3,-,N/A,,Mostly Cloudy,210,2013-02-26 05:20:00
6:50 AM,42.8,37.4,81,30.01,5.0,Calm,Calm,-,N/A,,Unknown,0,2013-02-26 05:50:00
7:20 AM,44.6,39.2,81,30.04,5.0,Variable,2.3,-,N/A,Rain,Light Rain,0,2013-02-26 06:20:00
7:50 AM,44.6,39.2,81,30.04,6.2,Calm,Calm,-,N/A,,Overcast,0,2013-02-26 06:50:00
8:20 AM,44.6,41.0,87,30.04,6.2,Variable,1.2,-,N/A,,Light Drizzle,0,2013-02-26 07:20:00
8:50 AM,46.4,41.0,81,30.04,6.2,North,4.6,-,N/A,,Light Drizzle,10,2013-02-26 07:50:00
9:50 AM,48.2,39.2,71,30.04,6.2,NNE,4.6,-,N/A,,Mostly Cloudy,20,2013-02-26 08:50:00
10:20 AM,50.0,39.2,66,30.04,6.2,NE,6.9,-,N/A,,Scattered Clouds,40,2013-02-26 09:20:00
10:50 AM,51.8,39.2,62,30.04,6.2,NE,10.4,-,N/A,,Scattered Clouds,40,2013-02-26 09:50:00
11:20 AM,51.8,37.4,58,30.04,6.2,NE,8.1,-,N/A,,Scattered Clouds,40,2013-02-26 10:20:00
11:50 AM,51.8,37.4,58,30.04,6.2,NE,8.1,-,N/A,,Scattered Clouds,40,2013-02-26 10:50:00
12:20 PM,51.8,37.4,58,30.04,6.2,North,5.8,-,N/A,,Mostly Cloudy,350,2013-02-26 11:20:00
12:50 PM,51.8,35.6,54,30.04,6.2,NNE,3.5,-,N/A,,Mostly Cloudy,20,2013-02-26 11:50:00
1:20 PM,51.8,37.4,58,30.04,6.2,ENE,3.5,-,N/A,,Mostly Cloudy,70,2013-02-26 12:20:00
1:50 PM,53.6,37.4,54,30.04,6.2,Variable,2.3,-,N/A,,Mostly Cloudy,0,2013-02-26 12:50:00
2:20 PM,51.8,37.4,58,30.04,6.2,South,4.6,-,N/A,,Mostly Cloudy,190,2013-02-26 13:20:00
2:50 PM,51.8,37.4,58,30.04,6.2,South,5.8,-,N/A,,Mostly Cloudy,180,2013-02-26 13:50:00
3:20 PM,51.8,39.2,62,30.04,6.2,SSW,4.6,-,N/A,,Mostly Cloudy,200,2013-02-26 14:20:00
3:50 PM,51.8,39.2,62,30.04,6.2,South,4.6,-,N/A,,Mostly Cloudy,190,2013-02-26 14:50:00
4:20 PM,51.8,41.0,67,30.04,6.2,South,3.5,-,N/A,,Overcast,180,2013-02-26 15:20:00
4:50 PM,51.8,41.0,67,30.04,6.2,NNW,3.5,-,N/A,,Overcast,330,2013-02-26 15:50:00
5:20 PM,50.0,41.0,71,30.04,6.2,NNW,4.6,-,N/A,,Mostly Cloudy,330,2013-02-26 16:20:00
5:50 PM,50.0,41.0,71,30.06,6.2,NW,4.6,-,N/A,,Mostly Cloudy,310,2013-02-26 16:50:00
6:20 PM,50.0,41.0,71,30.06,6.2,WNW,2.3,-,N/A,,Mostly Cloudy,290,2013-02-26 17:20:00
6:50 PM,50.0,41.0,71,30.06,6.2,NNW,1.2,-,N/A,,Mostly Cloudy,330,2013-02-26 17:50:00
7:20 PM,48.2,41.0,76,30.06,6.2,NE,3.5,-,N/A,,Mostly Cloudy,40,2013-02-26 18:20:00
7:50 PM,48.2,41.0,76,30.06,6.2,East,2.3,-,N/A,,Mostly Cloudy,80,2013-02-26 18:50:00
8:20 PM,48.2,41.0,76,30.09,6.2,East,1.2,-,N/A,,Mostly Cloudy,90,2013-02-26 19:20:00
8:50 PM,48.2,42.8,82,30.09,6.2,Calm,Calm,-,N/A,,Mostly Cloudy,0,2013-02-26 19:50:00
9:20 PM,48.2,42.8,82,30.09,5.0,ENE,3.5,-,N/A,,Mostly Cloudy,70,2013-02-26 20:20:00
9:50 PM,48.2,41.0,76,30.09,5.0,Variable,2.3,-,N/A,,Mostly Cloudy,0,2013-02-26 20:50:00
10:20 PM,48.2,39.2,71,30.09,5.0,ENE,4.6,-,N/A,,Mostly Cloudy,70,2013-02-26 21:20:00
10:50 PM,48.2,39.2,71,30.09,5.0,East,3.5,-,N/A,,Mostly Cloudy,90,2013-02-26 21:50:00
11:20 PM,46.4,39.2,76,30.09,5.0,East,3.5,-,N/A,,Mostly Cloudy,100,2013-02-26 22:20:00
11:50 PM,44.6,39.2,81,30.09,5.0,WNW,2.3,-,N/A,,Mostly Cloudy,290,2013-02-26 22:50:00